Location: Unspecified
(0.0000°N, 0.0000°E)
Time: 21:40:57
(UTC+00:00)

COSMOS 1275 DEB - Visible Passes

Search period start: 12 January 2025 00:00
Search period end: 22 January 2025 00:00
Orbit: 914 x 1084 km, 82.8° (Epoch: 10 January)

Date Brightness Start Highest point End Pass type
(mag) Time Alt. Az. Time Alt. Az. Time Alt. Az.
12 Jan ? 19:00:28 10° SSE 19:06:31 45° E 19:12:47 10° NNE visible
12 Jan ? 20:48:46 10° WSW 20:52:09 15° W 20:55:36 10° NW visible
13 Jan ? 19:32:28 10° S 19:38:52 73° W 19:45:30 10° N visible
14 Jan ? 20:05:49 10° SW 20:11:16 29° W 20:16:53 10° NNW visible
15 Jan ? 18:51:41 10° S 18:58:01 61° E 19:04:36 10° NNE visible
15 Jan ? 20:42:45 10° W 20:43:42 10° W 20:44:39 10° WNW visible
16 Jan ? 19:24:05 10° SSW 19:30:23 55° W 19:36:55 10° N visible
17 Jan ? 19:57:57 10° SW 20:02:47 22° W 20:07:45 10° NW visible
18 Jan ? 05:38:33 10° ENE 05:41:02 13° E 05:43:29 10° ESE visible
18 Jan ? 18:43:01 10° S 18:49:32 81° E 18:56:15 10° N visible
19 Jan ? 19:15:48 10° SSW 19:21:54 42° W 19:28:10 10° NNW visible
20 Jan ? 19:50:23 10° WSW 19:54:17 16° W 19:58:15 10° NW visible
21 Jan ? 05:28:35 10° NE 05:32:29 18° E 05:36:18 10° SE visible
21 Jan ? 18:34:26 10° S 18:41:01 78° W 18:47:46 10° N visible
